sat.trackr.live / text

‹ back to catalog

STARLINK-30700

NORAD 57953 · 2023-148U

PAYLOAD ACTIVE UNKNOWN

§ Identity

Operator
Country
US
Launch date
2023-09-25
Launch site
AFWTR
Launch vehicle
Mass (kg)
RCS (m²)

Purposes: comms

External: N2YO · Heavens-Above · Gunter

§ Orbital elements

Epoch: 2026-05-24T22:38:41.931168Z

Period
94.11 min
Inclination
53.1603°
Eccentricity
0.0001076
Mean motion
15.30189745 rev/d
Perigee alt
474.5 km
Apogee alt
476.0 km
Semi-major
6,853.4 km
B*
4.8936e-5
RAAN
20.0155°
Arg perigee
73.2747°
Mean anomaly
286.8371°
Rev number
15,023

§ Raw data

STARLINK-307001 57953U 23148U   26144.94354087  .00001090  00000+0  48936-4 0  99972 57953  53.1603  20.0155 0001076  73.2747 286.8371 15.30189745150235

JSON: /api/v1/satellites/57953 · /tle

For live sub-satellite position, see the globe view (requires WebGL).

§ Visibility from observer

Set your observer location to see the next 7 days of passes ≥ 10°. The values pass through the URL so the page stays shareable.

No JS? Fill the form by hand. The geolocation button needs JavaScript.